EST,Max TemperatureF,Mean TemperatureF,Min TemperatureF,Max Dew PointF,MeanDew PointF,Min DewpointF,Max Humidity, Mean Humidity, Min Humidity, Max Sea Level PressureIn, Mean Sea Level PressureIn, Min Sea Level PressureIn, Max VisibilityMiles, Mean VisibilityMiles, Min VisibilityMiles, Max Wind SpeedMPH, Mean Wind SpeedMPH, Max Gust SpeedMPH,PrecipitationIn, CloudCover, Events, WindDirDegrees
2013-2-1,28,23,18,17,9,4,74,60,45,30.18,29.91,29.68,10,9,1,29,14,39,T,5,Snow,277
2013-2-2,27,18,8,13,8,2,83,63,42,30.24,30.14,30.04,10,10,10,21,7,28,T,6,Snow,216
2013-2-3,29,22,15,16,12,10,88,67,46,30.05,29.91,29.80,10,10,8,8,2,9,T,6,Snow,305
2013-2-4,26,19,12,16,11,7,84,65,46,29.97,29.88,29.80,10,8,0,23,9,32,T,6,Snow,279
2013-2-5,29,23,17,21,10,7,75,59,42,30.04,29.96,29.90,10,10,7,10,2,14,T,7,Snow,4
2013-2-6,35,26,17,24,14,0,88,60,31,30.40,30.12,29.91,10,9,5,28,10,36,T,5,Snow,257
2013-2-7,26,19,11,6,3,1,70,53,36,30.57,30.47,30.39,10,10,10,10,5,15,0.00,5,,14
2013-2-8,31,25,19,25,17,6,88,70,51,30.37,30.06,29.84,10,4,0,18,7,23,0.34,8,Fog-Snow,12
2013-2-9,26,15,4,21,9,-2,96,66,36,30.39,30.10,29.86,10,7,0,24,11,31,0.26,5,Fog-Snow,353
2013-2-10,28,12,-5,5,0,-7,91,60,29,30.54,30.42,30.29,10,10,10,7,1,8,0.00,2,,14
2013-2-11,39,27,14,36,27,6,92,77,61,30.25,29.91,29.66,10,10,5,28,11,40,0.03,8,Rain,181
2013-2-12,38,36,33,30,26,22,82,69,56,29.94,29.82,29.70,10,10,9,28,11,37,T,8,Snow,280
2013-2-13,39,35,30,26,22,18,78,61,44,29.91,29.84,29.75,10,10,10,12,3,14,T,7,Snow,336
2013-2-14,40,31,22,24,21,18,81,65,48,29.96,29.90,29.75,10,10,10,15,3,21,0.00,5,,305
2013-2-15,48,40,31,28,25,21,70,56,42,30.03,29.94,29.89,10,9,2,20,10,23,0.02,7,Snow,248
2013-2-16,33,28,23,28,16,7,92,69,46,30.03,29.96,29.87,10,9,2,17,8,23,T,7,Snow,323
2013-2-17,25,19,13,8,2,-2,61,47,32,29.93,29.79,29.69,10,10,10,35,18,48,0.00,7,,323
2013-2-18,27,18,8,8,-1,-4,67,48,29,30.23,30.16,29.99,10,10,10,29,13,40,0.00,1,,301
2013-2-19,43,31,18,34,21,7,92,68,43,30.18,29.87,29.63,10,9,5,29,9,43,0.08,7,Rain-Snow,188
2013-2-20,32,28,24,25,14,7,63,51,39,29.91,29.79,29.68,10,10,10,31,17,41,T,7,Snow,287
2013-2-21,25,22,18,16,9,6,77,65,52,30.40,30.08,29.90,10,10,5,30,17,37,T,6,Snow,302
2013-2-22,36,27,18,23,16,12,80,66,52,30.45,30.36,30.25,10,10,10,16,4,23,T,7,,359
2013-2-23,37,35,32,34,30,23,96,80,64,30.24,30.06,29.89,10,8,2,17,7,24,0.01,8,Rain-Snow,169
2013-2-24,40,36,32,33,29,23,100,82,64,29.99,29.85,29.79,10,4,0,22,8,28,0.05,8,Fog-Rain-Snow,312
2013-2-25,41,31,21,29,25,19,96,75,54,30.26,30.14,30.01,10,10,6,13,2,17,0.00,5,,317
2013-2-26,45,35,24,29,25,23,92,69,45,30.33,30.23,30.04,10,10,7,14,3,20,0.00,6,,115
2013-2-27,43,38,32,36,32,27,100,85,70,30.04,29.81,29.57,10,5,0,16,5,25,0.79,8,Fog-Rain-Snow,5
2013-2-28,44,39,34,36,33,31,100,84,67,29.62,29.59,29.57,10,7,1,14,3,16,0.09,8,Fog-Rain,325